Weather History for KZZV - April, 2013

Change the Weather History Date:

Thursday, April 4, 2013

  Actual Average Record
Temperature  
Mean Temperature 37 °F 48 °F  
Max Temperature 52 °F 59 °F 83 °F (1986)
Min Temperature 21 °F 36 °F 19 °F (1964)
Degree Days  
Heating Degree Days 28 18  
Month to date heating degree days 116 73  
Since 1 July heating degree days 5133 5017  
Cooling Degree Days 0 0  
Month to date cooling degree days 0 0  
Year to date cooling degree days 0 1  
Moisture  
Dew Point 15 °F    
Average Humidity 46    
Maximum Humidity 71    
Minimum Humidity 21    
Precipitation  
Precipitation 0.00 in 0.11 in 1.62 in (1981)
Month to date precipitation T 0.46  
Year to date precipitation 6.66 8.29  
Sea Level Pressure  
Sea Level Pressure 30.19 in    
Wind  
Wind Speed 2 mph (SE)    
Max Wind Speed 9 mph    
Max Gust Speed 14 mph    
Visibility 10 miles    
Events      
T = Trace of Precipitation, MM = Missing Value Source: NWS Daily Summary

Daily Weather History Graph

Daily Weather History Graph

Search for Another Location

Airport or City:

Trip Planner

Search our weather history database for the weather conditions in past years. The results will help you decide how hot, cold, wet, or windy it might be!

Date:

Astronomy

Apr. 04, 2013 Rise Set
Actual Time 7:06 AM EDT 7:55 PM EDT
Civil Twilight 6:39 AM EDT 8:22 PM EDT
Nautical Twilight 6:06 AM EDT 8:55 PM EDT
Astronomical Twilight 5:33 AM EDT 9:28 PM EDT
Moon 3:32 AM EDT (4/4) 2:12 PM EDT (4/4)
Length of Visible Light 13h 43m
Length of Day
12h 48m
Waning Crescent, 34% of the Moon is Illuminated
Apr 4
Waning Crescent
Apr 10
New
Apr 18
First Quarter
Apr 25
Full
May 2
Last Quarter

Hourly Weather History & Observations

Time (EDT) Temp. Windchill Dew Point Humidity Pressure Visibility Wind Dir Wind Speed Gust Speed Precip Events Conditions
12:53 AM 27.0 °F - 12.0 °F 53% 30.39 in 10.0 mi Calm Calm - N/A   Clear
1:53 AM 26.1 °F - 12.0 °F 55% 30.40 in 10.0 mi Calm Calm - N/A   Clear
2:53 AM 24.1 °F - 10.9 °F 57% 30.39 in 10.0 mi Calm Calm - N/A   Clear
3:53 AM 21.9 °F - 14.0 °F 72% 30.37 in 10.0 mi Calm Calm - N/A   Clear
4:53 AM 21.0 °F - 14.0 °F 74% 30.36 in 10.0 mi Calm Calm - N/A   Clear
5:53 AM 24.1 °F 18.2 °F 12.9 °F 62% 30.33 in 10.0 mi NNE 4.6 mph - N/A   Clear
6:53 AM 24.1 °F - 12.9 °F 62% 30.31 in 10.0 mi Calm Calm - N/A   Clear
7:53 AM 25.0 °F - 14.0 °F 63% 30.32 in 10.0 mi Calm Calm - N/A   Clear
8:53 AM 27.0 °F 23.0 °F 15.1 °F 61% 30.29 in 10.0 mi NNE 3.5 mph - N/A   Clear
9:53 AM 32.0 °F 27.5 °F 16.0 °F 52% 30.27 in 10.0 mi NE 4.6 mph - N/A   Clear
10:53 AM 35.1 °F - 15.1 °F 44% 30.26 in 10.0 mi Calm Calm - N/A   Clear
11:53 AM 39.9 °F 36.7 °F 10.0 °F 29% 30.21 in 10.0 mi ESE 4.6 mph - N/A   Clear
12:53 PM 45.0 °F 43.5 °F 12.9 °F 27% 30.17 in 10.0 mi SE 3.5 mph - N/A   Clear
1:53 PM 48.0 °F - 15.1 °F 27% 30.14 in 10.0 mi Calm Calm - N/A   Clear
2:53 PM 50.0 °F - 12.9 °F 23% 30.11 in 10.0 mi Calm Calm - N/A   Clear
3:53 PM 50.0 °F - 14.0 °F 24% 30.08 in 10.0 mi Variable 4.6 mph - N/A   Clear
4:53 PM 52.0 °F - 15.1 °F 23% 30.04 in 10.0 mi SSW 4.6 mph - N/A   Clear
5:53 PM 52.0 °F - 15.1 °F 23% 30.04 in 10.0 mi SSW 6.9 mph - N/A   Clear
6:53 PM 51.1 °F - 16.0 °F 25% 30.04 in 10.0 mi South 6.9 mph - N/A   Clear
7:53 PM 48.0 °F - 18.0 °F 30% 30.02 in 10.0 mi South 6.9 mph - N/A   Clear
8:53 PM 45.0 °F - 18.0 °F 34% 30.02 in 10.0 mi Calm Calm - N/A   Clear
9:53 PM 46.0 °F 44.8 °F 18.0 °F 33% 30.02 in 10.0 mi South 3.5 mph - N/A   Clear
10:53 PM 44.1 °F - 18.0 °F 35% 30.01 in 10.0 mi Calm Calm - N/A   Clear
11:53 PM 37.0 °F - 21.0 °F 52% 30.00 in 10.0 mi Calm Calm - N/A   Clear